Flag for U.S.A. Weather past 2 weeks in Houston, Texas, U.S.A.

Now
80 °F

Scattered clouds.


Feels Like: 85 °F
Forecast: 79 / 95 °F
Wind: No wind

Location: Houston Hobby Airport

Current Time: Aug 23, 2014 at 9:08:02 AM

Latest Report: Aug 23, 2014 at 7:53 AM


Visibility: 10 mi

Pressure: 30.03 "Hg

Humidity: 87%

Dew point: 76 °F

Location of HoustonLocation

Historic Weather in Houston — Graph

°F

Houston temperature yesterday

Maximum temperature yesterday: 96 °F (at 2:53 PM)
Minimum temperature yesterday: 77 °F (at 5:53 AM)
Average temperature yesterday: 85 °F

Past Weeks' High & Low Weather Summary

 TemperatureHumidityPressure
High97 °F (Aug 11, 3:53 PM)94% (Aug 21, 4:53 AM)30.10 "Hg (Aug 21, 4:53 AM)
Low75 °F (Aug 11, 10:53 PM)38% (Aug 12, 3:53 PM)29.89 "Hg (Aug 19, 4:53 PM)
Average85 °F71%29.99 "Hg
* Reported Aug 8 7:53 AM — Aug 23 7:53 AM, Houston, Weather by CustomWeather, © 2014

Note: Actual official high and low records may vary slightly from our data, if they occured in-between our weather recording intervals... More about our weather records

Advertising

Houston weather history for previous 24 hours

 ConditionsComfort  
Time TempWeatherWind HumidityBarometerVisibility
7:53 AM
Aug 23
80 °FScattered clouds.No wind87%30.03 "Hg10 mi
6:53 AM77 °FPassing clouds.No wind90%30.02 "Hg10 mi
5:53 AM77 °FPassing clouds.No wind90%30.01 "Hg10 mi
4:53 AM77 °FClear.No wind90%30.00 "Hg10 mi
3:53 AM77 °FClear.No wind90%30.01 "Hg10 mi
2:53 AM78 °FPassing clouds.No wind90%30.00 "Hg10 mi
1:53 AM78 °FPassing clouds.3 mph87%30.00 "Hg10 mi
12:53 AM79 °FClear.3 mph88%30.01 "Hg10 mi
11:53 PM
Aug 22
79 °FClear.3 mph84%30.02 "Hg10 mi
10:53 PM80 °FPassing clouds.5 mph81%30.03 "Hg10 mi
9:53 PM81 °FPassing clouds.7 mph79%30.03 "Hg10 mi
8:53 PM83 °FPassing clouds.7 mph74%30.03 "Hg10 mi
7:53 PM85 °FScattered clouds.9 mph68%30.01 "Hg10 mi
6:53 PM89 °FScattered clouds.12 mph57%30.01 "Hg10 mi
5:53 PM92 °FScattered clouds.10 mph52%30.00 "Hg10 mi
4:53 PM92 °FPassing clouds.12 mph54%30.01 "Hg10 mi
3:53 PM93 °FBroken clouds.7 mph54%30.02 "Hg10 mi
2:53 PM96 °FScattered clouds.3 mph44%30.04 "Hg10 mi
1:53 PM95 °FPartly sunny.9 mph44%30.06 "Hg10 mi
12:53 PM92 °FScattered clouds.3 mph51%30.07 "Hg10 mi
11:53 AM91 °FScattered clouds.5 mph56%30.09 "Hg10 mi
10:53 AM89 °FScattered clouds.7 mph63%30.10 "Hg10 mi
9:53 AM86 °FScattered clouds.6 mph72%30.09 "Hg10 mi
Weather by CustomWeather, © 2014

See weather overviewHow to use our weather pages